Regional Weather Roundup
Issued by NWS

Home | Current Version | Previous Version | Graphics & Text | Print | Product List | Glossary On
Versions: 1 2 3 4 5 6 7 8 9 10 11 12 13 14 15 16 17 18 19 20 21 22 23 24 25 26 27 28 29 30 31 32 33 34 35 36 37 38 39 40 41 42 43 44 45 46 47 48 49 50
000
ASUS43 KDTX 240710
RWRMI
MICHIGAN HOURLY REGIONAL WEATHER ROUNDUP
NATIONAL WEATHER SERVICE DETROIT/PONTIAC MI
ISSUED BY NATIONAL WEATHER SERVICE GRAND RAPIDS MI
200 AM EST TUE JAN 24 2017

NOTE: "FAIR" INDICATES FEW OR NO CLOUDS BELOW 12,000 FEET WITH NO
SIGNIFICANT WEATHER AND/OR OBSTRUCTION TO VISIBILITY.

MIZ047>049-052>055-059>063-066>070-074>076-081>083-240800-
SOUTHEAST LOWER MICHIGAN

CITY           SKY/WX    TMP DP  RH WIND       PRES   REMARKS
ADRIAN         LGT RAIN  39  39 100 N5        29.71F
ALMA           FLURRIES  37  36  99 CALM      29.72S
ANN ARBOR      CLOUDY    40  40 100 W3        29.69F FOG
BAD AXE        CLOUDY    34  34 100 CALM      29.73S FOG
DETROIT CITY   CLOUDY    38  37  97 E8        29.72R WCI  32
DETROIT        LGT RAIN  41  40  96 E3        29.72R VSB 1/4
FLINT          LGT RAIN  37  37 100 N5        29.71F VSB 1/2 WCI  33
GROSSE ILE     LGT RAIN  38  37  96 E3        29.71R
HILLSDALE      DRIZZLE   36  36 100 NW3       29.69S
HOWELL         RAIN      37  36  98 NW5       29.71S VSB 1   WCI  33

CITY           SKY/WX    TMP DP  RH WIND       PRES   REMARKS
JACKSON        LGT RAIN  38  36  92 N5        29.71S WCI  34
LANSING        LGT RAIN  37  35  92 N3        29.73R
MASON          RAIN      37  37 100 N3        29.72R
MONROE         LGT RAIN  41  41 100 S5        29.70S
MT. CLEMENS    CLOUDY    37  37 100 E6        29.70S WCI  33
PONTIAC        FOG       37  36  96 NW3       29.68F VSB 1/4
PORT HOPE        N/A     36  35  96 NE5       29.72S WCI  32
PORT HURON     CLOUDY    36  34  93 E5        29.72F WCI  32
TRI CITIES     LGT RAIN  36  36 100 N6        29.73S VSB 3/4 WCI  31
YPSILANTI      LGT RAIN  42  41  96 CALM      29.71R VSB 1/4
$$
MIZ043>046-050>051-056>058-064>065-071>073-077>080-240800-
SOUTHWEST LOWER MICHIGAN

CITY           SKY/WX    TMP DP  RH WIND       PRES   REMARKS
BATTLE CREEK   CLOUDY    40  39  97 N7        29.72S
BENTON HARBOR  CLOUDY    39  36  89 N6        29.76F WCI  35
BIG RAPIDS     CLOUDY    37  36  98 NW3       29.72S
COLDWATER      CLOUDY    40  40 100 N5        29.71S
HOLLAND        CLOUDY    38  36  92 NW9       29.75S WCI  31
GRAND RAPIDS   CLOUDY    40  37  89 NW8       29.72F WCI  34
KALAMAZOO      CLOUDY    40  37  89 NW9       29.72F WCI  34
MARSHALL       CLOUDY    38  38  98 NW3       29.71S
MOUNT PLEASANT MOCLDY    36  36  99 CALM      29.71S
MUSKEGON       CLOUDY    39  37  92 NW5       29.75F
STURGIS        CLOUDY    38  38 100 NW9       29.71R WCI  32
$$
MIZ016>042-240800-
NORTHERN LOWER MICHIGAN

CITY           SKY/WX    TMP DP  RH WIND       PRES   REMARKS
ALPENA         LGT RAIN  36  35  96 E5        29.76S FOG     WCI  32
BEAVER ISLAND  FOG       32  32 100 CALM      29.75F VSB 1
BELLAIRE       LGT SNOW  34  34 100 CALM      29.74S VSB 1
CADILLAC       CLOUDY    35  34  96 W5        29.71S FOG     WCI  31
CHARLEVOIX     CLOUDY    36  36 100 CALM      29.76F FOG
GAYLORD        LGT RAIN  36  32  85 CALM      29.70F FOG
HOUGHTON LAKE  CLOUDY    35  34  96 CALM      29.71F
MANISTEE       LGT RAIN  37  37 100 NW5       29.75S FOG     WCI  33
OSCODA         MIX PCPN  37  36  97 CALM      29.73F
PELLSTON       LGT RAIN  34  32  92 CALM      29.74F VSB 3/4
TRAVERSE CITY  CLOUDY    37  36  96 W5        29.73F FOG     WCI  33
LUDINGTON      CLOUDY    37  37 100 NW7       29.76R WCI  31
$$
MIZ007>008-015-240800-
EASTERN UPPER MICHIGAN

CITY           SKY/WX    TMP DP  RH WIND       PRES   REMARKS
KINROSS        LGT RAIN  33  32  96 E8        29.76F WCI  26
MACKINAC ISLAN FLURRIES  33  33 100 E7        29.75S WCI  27
NEWBERRY       MIX PCPN  32  31  97 N3        29.76S
S. S. MARIE    LGT RAIN  34  33  96 E3        29.76F FOG
$$
MIZ004>006-011>014-085-240800-
CENTRAL UPPER MICHIGAN

CITY           SKY/WX    TMP DP  RH WIND       PRES   REMARKS
MANISTIQUE     CLOUDY    32  32  99 CALM      29.76F
ESCANABA       CLOUDY    34  34 100 CALM      29.78S FOG
SAWYER-GWINN   CLOUDY    32  32 100 NW3       29.77S FOG
$$
MIZ001>003-009>011-084-240800-
WESTERN UPPER MICHIGAN

CITY           SKY/WX    TMP DP  RH WIND       PRES   REMARKS
IRON MOUNTAIN  CLOUDY    34  32  92 CALM      29.76S FOG
HOUGHTON       FOG       34  32  92 CALM      29.78S VSB 1/4
COPPER HARBOR    N/A     34  33  96 CALM      29.79F
IRONWOOD       CLOUDY    34  33  96 W6        29.80  WCI  29
$$

ABBREVIATIONS USED IN REMARKS
   TC - TEMPERATURE IN CELSIUS
  WCI - WIND CHILL INDEX
   HX - HEAT INDEX
  VSB - VISIBILITY





USA.gov is the U.S. government's official web portal to all federal, state and local government web resources and services.